Weather History for Troy, AL

Change the Weather History Date:

Thursday, July 4, 2013

  Actual Average Record
Temperature  
Mean Temperature 73 °F 80 °F  
Max Temperature 74 °F 91 °F 99 °F (2006)
Min Temperature 71 °F 69 °F 61 °F (2014)
Cooling Degree Days 8 15  
Month to date cooling degree days 43 60  
Year to date cooling degree days 780 735  
Since 1 June cooling degree days 488 448  
Growing Degree Days 22 (Base 50)    
Moisture  
Dew Point 69 °F    
Average Humidity 89    
Maximum Humidity 93    
Minimum Humidity 84    
Precipitation  
Precipitation 1.75 in 0.19 in 1.75 in (2013)
Month to date precipitation 3.58 0.78  
Year to date precipitation 32.69 28.44  
Sea Level Pressure  
Sea Level Pressure 30.05 in    
Wind  
Wind Speed 8 mph (ESE)    
Max Wind Speed 20 mph    
Max Gust Speed 30 mph    
Visibility 7 miles    
Events Fog , Rain    
T = Trace of Precipitation, MM = Missing Value Source: NWS Daily Summary

Daily Weather History Graph

Daily Weather History Graph

Search for Another Location

Airport:

Trip Planner

Search our weather history database for the weather conditions in past years. The results will help you decide how hot, cold, wet, or windy it might be!

Date:

Astronomy

Jul. 04, 2013 Rise Set
Actual Time 5:43 AM CDT 7:53 PM CDT
Civil Twilight 5:15 AM CDT 8:21 PM CDT
Nautical Twilight 4:41 AM CDT 8:55 PM CDT
Astronomical Twilight 4:04 AM CDT 9:32 PM CDT
Moon 2:54 AM CDT (7/4) 5:01 PM CDT (7/4)
Length of Visible Light 15h 06m
Length of Day
14h 10m
Waning Crescent, 11% of the Moon is Illuminated
Jul 4
Waning Crescent
Jul 8
New
Jul 15
First Quarter
Jul 22
Full
Jul 29
Last Quarter

Hourly Weather History & Observations

Time (CDT) Temp. Dew Point Humidity Pressure Visibility Wind Dir Wind Speed Gust Speed Precip Events Conditions
12:04 AM 71.6 °F 66.2 °F 83% 30.06 in 10.0 mi ESE 6.9 mph - N/A   Partly Cloudy
12:39 AM 71.6 °F 66.2 °F 83% 30.06 in 10.0 mi ESE 6.9 mph - N/A   Mostly Cloudy
12:53 AM 71.1 °F 66.9 °F 87% 30.06 in 10.0 mi SE 6.9 mph - N/A   Overcast
1:53 AM 72.0 °F 68.0 °F 87% 30.04 in 10.0 mi SE 8.1 mph - N/A   Overcast
2:39 AM 71.6 °F 68.0 °F 88% 30.05 in 10.0 mi ESE 5.8 mph - N/A   Overcast
2:53 AM 72.0 °F 69.1 °F 91% 30.03 in 10.0 mi ESE 6.9 mph - N/A   Overcast
3:42 AM 73.4 °F 69.8 °F 88% 30.05 in 10.0 mi ESE 4.6 mph - N/A   Overcast
3:53 AM 73.0 °F 69.1 °F 87% 30.03 in 5.0 mi ESE 5.8 mph - 0.02 in Rain Light Rain
4:53 AM 73.0 °F 70.0 °F 90% 30.03 in 7.0 mi ESE 8.1 mph - 0.01 in Rain Light Rain
5:49 AM 73.4 °F 69.8 °F 88% 30.04 in 8.0 mi East 3.5 mph - 0.02 in Rain Light Rain
5:53 AM 73.0 °F 70.0 °F 90% 30.03 in 7.0 mi East 4.6 mph - 0.02 in Rain Rain
6:01 AM 73.4 °F 69.8 °F 88% 30.04 in 6.0 mi East 6.9 mph - 0.02 in Rain Rain
6:18 AM 73.4 °F 69.8 °F 88% 30.04 in 8.0 mi East 6.9 mph - 0.03 in Rain Light Rain
6:44 AM 73.4 °F 69.8 °F 88% 30.05 in 5.0 mi East 4.6 mph - 0.08 in Rain Rain
6:53 AM 73.0 °F 70.0 °F 90% 30.04 in 5.0 mi ESE 4.6 mph - 0.10 in Rain Rain
7:30 AM 73.4 °F 69.8 °F 88% 30.07 in 4.0 mi ESE 6.9 mph - 0.08 in Rain Rain
7:53 AM 73.0 °F 70.0 °F 90% 30.05 in 4.0 mi East 5.8 mph - 0.13 in Rain Rain
8:21 AM 73.4 °F 69.8 °F 88% 30.07 in 2.0 mi East 6.9 mph - 0.11 in Rain Heavy Rain
8:46 AM 73.4 °F 69.8 °F 88% 30.06 in 2.0 mi East 5.8 mph - 0.24 in Rain Heavy Rain
8:53 AM 73.0 °F 70.0 °F 90% 30.05 in 2.5 mi East 6.9 mph - 0.27 in Rain Heavy Rain
9:31 AM 73.4 °F 69.8 °F 88% 30.08 in 1.2 mi ESE 6.9 mph - 0.21 in Rain Heavy Rain
9:39 AM 73.4 °F 69.8 °F 88% 30.07 in 1.0 mi ESE 8.1 mph - 0.26 in Rain Heavy Rain
9:53 AM 73.0 °F 70.0 °F 90% 30.06 in 0.8 mi East 8.1 mph - 0.42 in Rain Heavy Rain
10:03 AM 73.4 °F 69.8 °F 88% 30.07 in 0.5 mi East 6.9 mph - 0.26 in Fog , Rain Heavy Rain
10:08 AM 73.4 °F 69.8 °F 88% 30.07 in 1.0 mi East 6.9 mph - 0.29 in Rain Heavy Rain
10:10 AM 73.4 °F 69.8 °F 88% 30.07 in 1.5 mi ENE 6.9 mph - 0.31 in Rain Heavy Rain
10:23 AM 73.4 °F 69.8 °F 88% 30.06 in 1.8 mi ENE 6.9 mph - 0.40 in Rain Heavy Rain
10:32 AM 73.4 °F 69.8 °F 88% 30.06 in 2.5 mi ENE 5.8 mph - 0.42 in Rain Rain
10:39 AM 73.4 °F 69.8 °F 88% 30.05 in 3.0 mi ENE 10.4 mph - 0.43 in Rain Rain
10:53 AM 73.0 °F 70.0 °F 90% 30.03 in 4.0 mi East 9.2 mph 16.1 mph 0.46 in Rain Rain
11:44 AM 73.4 °F 69.8 °F 88% 30.05 in 6.0 mi ESE 11.5 mph 18.4 mph 0.05 in Rain Rain
11:53 AM 73.9 °F 70.0 °F 87% 30.04 in 4.0 mi ESE 11.5 mph 16.1 mph 0.07 in Rain Rain
12:53 PM 73.9 °F 69.1 °F 85% 30.03 in 5.0 mi ESE 10.4 mph 23.0 mph 0.09 in Rain Light Rain
1:53 PM 73.9 °F 69.1 °F 85% 30.00 in 9.0 mi ESE 13.8 mph 19.6 mph 0.09 in Rain Light Rain
2:08 PM 73.4 °F 69.8 °F 88% 29.99 in 10.0 mi ESE 11.5 mph 23.0 mph 0.01 in Rain Light Rain
2:53 PM 73.0 °F 69.1 °F 87% 30.01 in 4.0 mi South 8.1 mph - 0.06 in Rain Light Rain
3:05 PM 73.4 °F 69.8 °F 88% 30.02 in 8.0 mi South 6.9 mph - 0.00 in Rain Light Rain
3:33 PM 73.4 °F 69.8 °F 88% 30.01 in 10.0 mi SSE 8.1 mph - 0.00 in   Overcast
3:53 PM 73.9 °F 69.1 °F 85% 30.00 in 10.0 mi South 11.5 mph 20.7 mph 0.00 in   Overcast
4:43 PM 73.4 °F 69.8 °F 88% 30.01 in 10.0 mi SSE 11.5 mph 19.6 mph 0.01 in   Overcast
4:53 PM 73.9 °F 69.1 °F 85% 30.00 in 10.0 mi South 11.5 mph 19.6 mph 0.01 in   Overcast
5:53 PM 73.9 °F 68.0 °F 82% 30.02 in 10.0 mi South 6.9 mph - N/A   Overcast
6:53 PM 73.9 °F 68.0 °F 82% 30.03 in 10.0 mi South 5.8 mph - N/A   Overcast
7:53 PM 73.0 °F 68.0 °F 84% 30.03 in 10.0 mi South 6.9 mph - N/A   Overcast
8:10 PM 73.4 °F 68.0 °F 83% 30.05 in 10.0 mi South 6.9 mph - N/A   Overcast
8:53 PM 73.0 °F 68.0 °F 84% 30.06 in 10.0 mi Variable 4.6 mph - N/A   Overcast
9:53 PM 73.0 °F 69.1 °F 87% 30.08 in 10.0 mi SSE 9.2 mph - N/A   Overcast
10:53 PM 73.0 °F 69.1 °F 87% 30.10 in 10.0 mi SSE 5.8 mph - N/A   Overcast
11:45 PM 73.4 °F 69.8 °F 88% 30.09 in 10.0 mi SE 5.8 mph - N/A   Overcast
11:53 PM 73.0 °F 69.1 °F 87% 30.07 in 10.0 mi SE 8.1 mph - N/A   Overcast